Content
SEND FEEDBACK

Daily
Averages
Monthly
Summary
United States of America

HERMOSA, SOUTH DAKOTA


Home > North America > United States > South Dakota
Elevation: 3300 feet     Latitude: 43 50N     Longitude: 103 11W

WEATHER
 
SELECT A DAY
Number of Records: 205,017;   Date Range: 1/1/95 - 12/19/14
 
SHARE

PRINT THIS DATA

[ ← Previous Day ]
WEATHER ALMANAC - MAY 4, 2014
[ Next Day → ]
[ °C ]   °F
Weather ElementAverageHighLow
Temperature47.1 °F63 °F (4:52 pm)39 °F (7:52 am)
Dewpoint36.5 °F43 °F (6:52 pm)32 °F (7:52 am)
Humidity67.5 %81 % (11:52 pm)46 % (4:52 pm)
Barometer29.91 in29.99 in (6:52 am)29.76 in (3:52 pm)
Wind Speed12.3 mph18.4 mph (10:52 am)
Wind Gust25.3 mph (12:52 pm)
Weather ElementAverage
Visibility10 mi
Wind DirectionESE (126.3 °)

Weather ElementTotal
Precipitation---
Heating Degree Days14 (Base 65)
Growing Degree Days1 (Base 50)
Averaged from 30 records on May 4, 2014
WEATHER CONDITIONS BREAKOUT
WIND DIRECTION BREAKOUT
WEATHER BY HOUR - MAY 4, 2014
[ °C ]   °F
Local TimeTemperatureDewpointHumidityBarometerVisibilityWind DirectionWind SpeedGust SpeedPrecipitationEventsConditions
1:52 AM44.1 °F36.0 °F73 %29.97 in10.0 miESE (120°)11.5 mphOvercast
2:52 AM43.0 °F33.1 °F68 %29.96 in10.0 miSE (140°)12.7 mphOvercast
3:24 AM43.0 °F33.1 °F68 %29.96 in10.0 miSE (130°)10.4 mphOvercast
3:52 AM42.1 °F34.0 °F73 %29.97 in10.0 miESE (120°)8.1 mphOvercast
4:07 AM42.1 °F34.0 °F73 %29.96 in10.0 miESE (120°)8.1 mphOvercast
4:52 AM42.1 °F33.1 °F70 %29.98 in10.0 miESE (120°)12.7 mphOvercast
5:52 AM41.0 °F34.0 °F76 %29.98 in10.0 miSE (130°)12.7 mphOvercast
6:44 AM39.9 °F34.0 °F79 %29.96 in10.0 miSE (130°)12.7 mphOvercast
6:52 AM39.9 °F34.0 °F79 %29.99 in10.0 miSE (130°)13.8 mphOvercast
7:07 AM39.9 °F34.0 °F79 %29.97 in10.0 miSE (130°)11.5 mphOvercast
7:52 AM39.0 °F32.0 °F76 %29.99 in10.0 miSE (130°)16.1 mphOvercast
8:13 AM39.9 °F32.0 °F73 %29.96 in10.0 miSE (130°)13.8 mphOvercast
8:32 AM41.0 °F33.1 °F73 %29.96 in10.0 miSE (140°)12.7 mphOvercast
8:52 AM41.0 °F32.0 °F70 %29.99 in10.0 miSE (130°)17.3 mphOvercast
9:52 AM43.0 °F33.1 °F68 %29.96 in10.0 miSE (140°)12.7 mphOvercast
10:52 AM45.0 °F34.0 °F65 %29.93 in10.0 miSE (140°)18.4 mphOvercast
11:52 AM46.0 °F35.1 °F66 %29.90 in10.0 miSouth (180°)16.1 mphOvercast
12:52 PM50.0 °F37.0 °F61 %29.86 in10.0 miSouth (170°)18.4 mph25.3 mphOvercast
1:45 PM55.0 °F39.9 °F57 %29.81 in10.0 miSouth (180°)17.3 mph25.3 mphOvercast
1:52 PM55.9 °F39.9 °F55 %29.82 in10.0 miSouth (170°)16.1 mphMostly Cloudy
2:52 PM57.9 °F41.0 °F53 %29.79 in10.0 miSSE (150°)18.4 mph24.2 mphClear
3:52 PM62.1 °F42.1 °F48 %29.76 in10.0 miSSE (160°)17.3 mphClear
4:52 PM63.0 °F42.1 °F46 %29.77 in10.0 miSSE (160°)8.1 mphClear
5:52 PM61.0 °F42.1 °F50 %29.80 in10.0 miEast (80°)8.1 mphClear
6:52 PM57.9 °F43.0 °F58 %29.78 in10.0 miEast (100°)15.0 mphPartly Cloudy
7:52 PM55.0 °F42.1 °F62 %29.85 in10.0 miENE (60°)10.4 mphPartly Cloudy
8:52 PM48.0 °F39.9 °F74 %29.88 in10.0 miENE (70°)8.1 mphClear
9:52 PM46.0 °F39.0 °F76 %29.90 in10.0 miEast (80°)8.1 mphClear
10:52 PM45.0 °F37.9 °F76 %29.89 in10.0 miSSE (150°)3.5 mphClear
11:52 PM42.8 °F37.4 °F81 %29.86 in10.0 miCalmClear
Hourly data recorded from KRAP, located miles away from Hermosa, South Dakota







STORIES FROM OUR PARTNERS